Regional Weather Roundup
Issued by NWS Kansas City/Pleasant Hill, MO

Home | Current Version | Previous Version | Graphics & Text | Print | Product List | Glossary Off
Versions: 1 2 3 4 5 6 7 8 9 10 11 12 13 14 15 16 17 18 19 20 21 22 23 24 25 26 27 28 29 30 31 32 33 34 35 36 37 38 39 40 41 42 43 44 45 46 47 48 49 50

000
ASUS43 KEAX 270910
RWREAX

WEATHER ROUNDUP FOR EASTERN KANSAS AND NORTHWEST MISSOURI
NATIONAL WEATHER SERVICE KANSAS CITY/PLEASANT HILL MO
400 AM CDT THU AUG 27 2015

KSZ040-057-103>105-MOZ028-029-037-043-271000-
...KANSAS CITY METROPOLITAN AREA...

CITY           SKY/WX    TMP DP  RH WIND       PRES   REMARKS
K.C. INTL      PTCLDY    64  54  69 SE8       30.09S
K.C. DOWNTOWN  CLEAR     68  55  63 VRB3      30.08S
LEES SUMMIT    CLEAR     65  53  65 SE7       30.10S
OLATHE - IXD   MOCLDY    65  59  81 SE7       30.10R
OLATHE - OJC   PTCLDY    64  58  80 SE7       30.08F
LAWRENCE       CLOUDY    66  62  87 E5        30.08S

$$

MOZ001>008-011>017-020>025-030>033-038>040-044>046-053-054-271000-
...NORTHERN AND CENTRAL MISSOURI...

CITY           SKY/WX    TMP DP  RH WIND       PRES   REMARKS
ST. JOSEPH     PTCLDY    61  56  83 CALM      30.08S
MOSBY          SUNNY     57  55  94 CALM      30.10R
WARRENSBURG    CLEAR     61  54  77 CALM      30.10S
WHITEMAN AFB   CLEAR     60  54  78 SE2       30.10S
CLINTON          N/A     63  57  82 CALM      30.11R FOG
SEDALIA        CLEAR     58  53  84 SE6       30.13R
WARSAW         NOT AVBL
CHILLICOTHE      N/A     58  56  93 CALM      30.12S
KIRKSVILLE     CLEAR     54  51  90 CALM      30.14R

$$

MOZ041-047>049-056>058-063>065-088>090-097-271000-
...EASTERN AND SOUTHERN MISSOURI...

CITY           SKY/WX    TMP DP  RH WIND       PRES   REMARKS
ST. LOUIS INTL CLEAR     60  54  80 E5        30.15F
SPIRIT OF STL  CLEAR     57  56  96 CALM      30.14F
COLUMBIA       CLEAR     60  57  89 SE5       30.13S
JEFFERSON CITY PTCLDY    57  56  96 CALM      30.13R FOG
ROLLA          CLEAR     59  55  87 SE8       30.13S
OSAGE BEACH    CLEAR     55  52  88 CALM      30.13S
SPRINGFIELD    CLEAR     63  55  75 SE9       30.11F
BRANSON        CLOUDY    64  63  94 CALM      30.13S
JOPLIN         CLEAR     66  61  84 SE8       30.08F
WEST PLAINS    CLEAR     55  52  89 CALM      30.16S

$$

IAZ060-094-KSZ022-034>040-054-083-096-NEZ052-066-093-271000-
...KANSAS...SOUTHEAST NEBRASKA AND IOWA...

CITY           SKY/WX    TMP DP  RH WIND       PRES   REMARKS
TOPEKA         PTCLDY    68  62  81 SE6       30.07S
MANHATTAN      PTCLDY    71  63  75 E5        30.03S
EMPORIA        PTCLDY    67  61  81 SE7       30.06S
CHANUTE        MOCLDY    67  61  81 E8        30.08S
WICHITA        MOCLDY    73  68  84 SE10      30.02S
OMAHA          MOCLDY    66  59  78 SE9       30.05S
LINCOLN        PTCLDY    69  61  75 SE10      30.02F
FALLS CITY     CLOUDY    65  61  87 SE6       30.06S
LAMONI         CLEAR     61  54  77 SE6       30.11R
DES MOINES     PTCLDY    60  53  77 SE5       30.11R

$$



USA.gov is the U.S. government's official web portal to all federal, state and local government web resources and services.